{"data":{"norad_id":55622,"intl_designator":"2023-020BF","name":"STARLINK-5702","alt_names":[],"object_type":"PAYLOAD","status":"ACTIVE","operator":null,"country":"US","launch_date":"2023-02-12","launch_site_code":"AFETR","launch_vehicle":null,"mission":null,"orbit_class":"UNKNOWN","rcs_meters":null,"size_class":null,"mass_kg":null,"dimensions":null,"purposes":["comms"],"wikipedia_slug":null,"has_3d_model":false,"image_url":null,"decayed_at":null,"tle_current":{"epoch":"2026-09-20T21:32:48.077088Z","epoch_age_seconds":68750,"freshness":"FRESH","line1":"1 55622U 23020BF  26263.89777867 -.00000061  00000+0  72951-5 0  9991","line2":"2 55622  43.0040 331.8155 0001247 275.3994  84.6716 15.27579060198891","mean_motion":15.2757906,"eccentricity":0.0001247,"inclination_deg":43.004,"raan_deg":331.8155,"arg_perigee_deg":275.3994,"mean_anomaly_deg":84.6716,"bstar":7.2951e-6,"rev_number":19889,"period_min":94.266806720956,"perigee_km":482.19632048209,"apogee_km":483.90750099643,"semimajor_km":6861.1889107393,"source":"CELESTRAK","updated_at":"2026-09-21T09:00:33.277962Z"}}}